STARLINK-32866, 62858

Orbit data source: Space-Track

STARLINK-32866, 62858 is a payload satellite owned by SpaceX/Seattle (US) in LEO that was launched on Sat, 01 Feb 2025 UTC via an FALCON 9 launch vehicle from the Air Force Western Test Range (AFWTR). Payload-class satellites include a variety of spacecraft equipped with specific instruments for various scientific and technological missions. These include communications satellites like Starlink; space stations such as the ISS; scientific satellites like the Hubble; Earth observation satellites from companies like Planet Labs, Umbra, and HawkEye 360; GPS; miniature CubeSats for education and research; and military/defense satellites.

Loading next visibility...
Identifier
62858, 2025-022E
Orbit
LEO
Country
Flag of USUS
Related business
Manufacturer
SpaceX/Seattle
Mission
Operational Commercial Communications
Bus & Motor
STARLINK V2M, Unknown motor
Mass
730 kg wet, ~700 kg dry
Launch date (UTC)
2025-02-01 (7 months ago)
Launch vehicle
FALCON 9
Launch site
Air Force Western Test Range (AFWTR)
Object type
Payload
Rocket body
Debris
Shape & HBR
Box + 2 Pan, 14.5 m
Radar Cross Section
33.884 m², Large (>1 m²)

Expand to show TLE details & history
Last TLE update: 11 hours ago

TLE from 11 hours ago
0 STARLINK-32866
1 62858U 25022E   25259.16717311  .00006366  00000-0  22694-3 0  9997
2 62858  53.1565 219.9898 0001297  73.9041 286.2103 15.30188781 35186
Epoch: 2025-09-16T04:00Z
TLE epoch observation values (Epoch: 2025-09-16T04:00:43.756Z)
Latitude
0.00001°
Longitude
164.44613°
Altitude
475.9 km
Speed
7.629 km/s
True Right ascension
14h 39m 57s
True Declination
0° 00' 00"
Sunlit
Object was in daylight at epoch
Visualization orbit readout
Latitude
Unknown
Longitude
Unknown
Altitude
Unknown
Speed
Unknown
Apparent Right ascension
Unknown
Apparent Declination
Unknown
Sunlit
N/A
Visualization observer readout
Local Sidereal Time
07:40:13
Azimuth
Unknown
Elevation
Unknown
Doppler factor
Unknown
Orbital elements
Apogee altitude
476.394 km
Perigee altitude
474.617 km
Semi-major axis
6,853.643 km
Eccentricity
0.00013
Inclination
53.1565°
RAAN
219.9898°
Arg. of periapsis
73.9041°
True anomaly
286.19603°
Mean anomaly
286.2103°
Eccentric anomaly
286.20316°
Mean motion
3.82526 °/min
Orbital period
94.11 mins
BSTAR
0.00022694
Loading maneuver chart data...
Computing Atmospheric mass density...
Loading historical data...
Loading historical data...
Loading historical data...
Loading historical data...
Loading historical data...
Loading historical data...
Loading historical data...

Documentation

Showing up to 5 results
|